Location: Vancouver
(49.2500°N, 123.1330°W)
Time: 10:29:18
(UTC-07:00)

Iridium 35 - Visible Passes

Search period start: 29 April 2017 00:00
Search period end: 09 May 2017 00:00
Orbit: 776 x 779 km, 86.4° (Epoch: 27 April)

Date Brightness Start Highest point End Pass type
(mag) Time Alt. Az. Time Alt. Az. Time Alt. Az.
29 Apr 7.7 22:26:47 10° NW 22:29:55 16° WNW 22:33:01 10° WSW visible
30 Apr 7.2 21:52:23 10° NNW 21:56:43 27° W 22:01:01 10° SW visible
01 May 6.3 21:18:26 10° NNW 21:23:24 45° W 21:28:20 10° SSW visible
02 May 8.0 22:28:00 10° NW 22:29:44 12° WNW 22:31:28 10° W visible
03 May 7.7 21:52:56 10° NNW 21:56:37 20° WNW 22:00:18 10° WSW visible
04 May 6.9 21:18:44 10° NNW 21:23:22 33° W 21:27:58 10° SW visible
06 May 7.9 21:53:43 10° NW 21:56:28 15° WNW 21:59:12 10° WSW visible
07 May 7.6 21:19:09 10° NNW 21:23:17 24° W 21:27:24 10° SW visible
